This is the latest recevied weather packets stored in our database for station/object KP4CRN. If no packets are shown the sender has not sent any weather packets the latest 10 day(s).
| Time | Temp. | Humidity | Pressure | Rain* | Wind** | Luminosity | Snow |
|---|---|---|---|---|---|---|---|
| 1778096973 | 32.78° C | 62% | 1015.4 hPa | 0 mm | - | 443 W/m² | - |
| 1778096671 | 32.22° C | 63% | 1015.5 hPa | 0 mm | - | 460 W/m² | - |
| 1778096367 | 32.78° C | 63% | 1015.6 hPa | 0 mm | - | 476 W/m² | - |
| 1778096065 | 32.22° C | 65% | 1015.4 hPa | 0 mm | - | 492 W/m² | - |
| 1778095761 | 32.22° C | 66% | 1015.6 hPa | 0 mm | - | 508 W/m² | - |
| 1778095458 | 32.78° C | 64% | 1015.6 hPa | 0 mm | - | 524 W/m² | - |
| 1778095155 | 32.78° C | 63% | 1015.7 hPa | 0 mm | - | 541 W/m² | - |
| 1778094851 | 33.33° C | 61% | 1015.5 hPa | 0 mm | - | 556 W/m² | - |
| 1778094549 | 33.33° C | 60% | 1015.8 hPa | 0 mm | - | 572 W/m² | - |
| 1778094245 | 33.33° C | 60% | 1015.9 hPa | 0 mm | - | 586 W/m² | - |
| 1778093942 | 32.78° C | 60% | 1015.8 hPa | 0 mm | - | 601 W/m² | - |
| 1778093639 | 33.33° C | 60% | 1015.8 hPa | 0 mm | - | 615 W/m² | - |
| 1778093336 | 33.33° C | 57% | 1015.9 hPa | 0 mm | - | 627 W/m² | - |
| 1778093033 | 33.33° C | 56% | 1016.1 hPa | 0 mm | - | 639 W/m² | - |
| 1778092730 | 33.33° C | 58% | 1016.2 hPa | 0 mm | - | 649 W/m² | - |
| 1778092425 | 32.78° C | 57% | 1016.2 hPa | 0 mm | - | 665 W/m² | - |
| 1778092123 | 33.33° C | 56% | 1016.2 hPa | 0 mm | - | 673 W/m² | - |
| 1778091819 | 33.33° C | 55% | 1016.2 hPa | 0 mm | - | 687 W/m² | - |
| 1778091517 | 33.89° C | 56% | 1016.3 hPa | 0 mm | - | 700 W/m² | - |
| 1778091214 | 33.33° C | 57% | 1016.4 hPa | 0 mm | - | 634 W/m² | - |
| 1778090906 | 33.33° C | 58% | 1016.3 hPa | 0 mm | - | 72 W/m² | - |
| 1778090602 | 32.78° C | 58% | 1016.4 hPa | 0 mm | - | 69 W/m² | - |
| 1778090299 | 33.33° C | 57% | 1016.5 hPa | 0 mm | - | 88 W/m² | - |
| 1778089995 | 32.78° C | 58% | 1016.6 hPa | 0 mm | - | 381 W/m² | - |
| 1778089693 | 33.33° C | 59% | 1016.8 hPa | 0 mm | - | 743 W/m² | - |
* Rain latest hour (hover to see other rain measurements)
** Current wind speed in m/s (hover to see current wind gust speed)